TimePST,TemperatureF,Dew PointF,Humidity,Sea Level PressureIn,VisibilityMPH,Wind Direction,Wind SpeedMPH,Gust SpeedMPH,PrecipitationIn,Events,Conditions,WindDirDegrees,DateUTC
12:15 AM,39.2,39.2,100,30.30,10.0,NNE,3.5,-,0.00,,Overcast,20,2013-02-09 08:15:00
12:35 AM,39.2,39.2,100,30.29,10.0,Calm,Calm,-,0.00,,Overcast,0,2013-02-09 08:35:00
12:55 AM,39.2,39.2,100,30.29,10.0,Calm,Calm,-,0.00,,Overcast,0,2013-02-09 08:55:00
1:15 AM,39.2,39.2,100,30.29,10.0,Calm,Calm,-,0.00,,Overcast,0,2013-02-09 09:15:00
1:35 AM,39.2,39.2,100,30.29,10.0,Calm,Calm,-,0.00,,Overcast,0,2013-02-09 09:35:00
1:55 AM,39.2,39.2,100,30.29,10.0,Calm,Calm,-,0.00,,Overcast,0,2013-02-09 09:55:00
2:15 AM,39.2,39.2,100,30.29,10.0,ENE,4.6,-,0.00,,Overcast,70,2013-02-09 10:15:00
2:35 AM,39.2,39.2,100,30.29,8.0,Calm,Calm,-,0.00,,Overcast,0,2013-02-09 10:35:00
2:55 AM,39.2,39.2,100,30.28,10.0,East,3.5,-,0.00,,Overcast,90,2013-02-09 10:55:00
3:15 AM,39.2,39.2,100,30.28,10.0,East,3.5,-,0.00,,Overcast,80,2013-02-09 11:15:00
3:35 AM,39.2,39.2,100,30.28,10.0,ENE,3.5,-,0.00,,Overcast,60,2013-02-09 11:35:00
3:55 AM,39.2,39.2,100,30.28,10.0,NE,4.6,-,0.00,,Overcast,50,2013-02-09 11:55:00
4:15 AM,39.2,39.2,100,30.28,9.0,NE,4.6,-,0.00,,Overcast,50,2013-02-09 12:15:00
4:35 AM,39.2,39.2,100,30.28,10.0,NE,4.6,-,0.00,,Overcast,40,2013-02-09 12:35:00
4:55 AM,39.2,39.2,100,30.28,10.0,NE,4.6,-,0.00,,Overcast,40,2013-02-09 12:55:00
5:15 AM,39.2,39.2,100,30.28,10.0,NNE,4.6,-,0.00,,Overcast,30,2013-02-09 13:15:00
5:35 AM,39.2,39.2,100,30.28,10.0,NE,3.5,-,0.00,,Overcast,40,2013-02-09 13:35:00
5:55 AM,39.2,39.2,100,30.28,10.0,NE,4.6,-,0.00,,Overcast,40,2013-02-09 13:55:00
6:15 AM,39.2,39.2,100,30.28,10.0,NE,3.5,-,0.00,,Overcast,50,2013-02-09 14:15:00
6:35 AM,39.2,39.2,100,30.28,10.0,NE,3.5,-,0.00,,Overcast,50,2013-02-09 14:35:00
6:55 AM,39.2,39.2,100,30.28,10.0,Calm,Calm,-,0.00,,Overcast,0,2013-02-09 14:55:00
7:15 AM,39.2,39.2,100,30.28,10.0,Calm,Calm,-,0.00,,Overcast,0,2013-02-09 15:15:00
7:35 AM,39.2,39.2,100,30.27,10.0,Calm,Calm,-,0.00,,Overcast,0,2013-02-09 15:35:00
7:55 AM,39.2,39.2,100,30.28,10.0,Calm,Calm,-,0.00,,Overcast,0,2013-02-09 15:55:00
8:15 AM,39.2,39.2,100,30.28,8.0,Calm,Calm,-,0.00,,Overcast,0,2013-02-09 16:15:00
8:35 AM,39.2,39.2,100,30.29,9.0,Calm,Calm,-,0.00,,Overcast,0,2013-02-09 16:35:00
8:55 AM,39.2,39.2,100,30.29,6.0,Calm,Calm,-,0.00,,Overcast,0,2013-02-09 16:55:00
9:15 AM,39.2,39.2,100,30.29,3.0,East,3.5,-,0.00,,Overcast,80,2013-02-09 17:15:00
9:35 AM,39.2,39.2,100,30.29,1.8,Calm,Calm,-,0.00,,Overcast,0,2013-02-09 17:35:00
9:55 AM,39.2,39.2,100,30.29,2.0,Calm,Calm,-,0.00,,Overcast,0,2013-02-09 17:55:00
10:15 AM,39.2,39.2,100,30.30,2.0,Calm,Calm,-,0.00,,Overcast,0,2013-02-09 18:15:00
10:35 AM,39.2,39.2,100,30.30,1.8,Calm,Calm,-,0.00,,Overcast,0,2013-02-09 18:35:00
10:55 AM,39.2,39.2,100,30.30,3.0,Calm,Calm,-,0.00,,Overcast,0,2013-02-09 18:55:00
11:15 AM,41.0,41.0,100,30.30,8.0,Calm,Calm,-,0.00,,Overcast,0,2013-02-09 19:15:00
11:35 AM,41.0,41.0,100,30.30,7.0,Calm,Calm,-,0.00,,Overcast,0,2013-02-09 19:35:00
11:55 AM,41.0,41.0,100,30.30,7.0,East,3.5,-,0.00,,Overcast,100,2013-02-09 19:55:00
12:15 PM,41.0,41.0,100,30.29,8.0,East,3.5,-,0.00,,Overcast,80,2013-02-09 20:15:00
12:35 PM,42.8,42.8,100,30.29,8.0,East,3.5,-,0.00,,Overcast,100,2013-02-09 20:35:00
12:55 PM,42.8,42.8,100,30.29,8.0,ESE,3.5,-,0.00,,Overcast,110,2013-02-09 20:55:00
1:35 PM,42.8,42.8,100,30.29,6.0,Calm,Calm,-,0.00,,Overcast,0,2013-02-09 21:35:00
1:55 PM,42.8,42.8,100,30.28,5.0,Calm,Calm,-,0.00,,Overcast,0,2013-02-09 21:55:00
2:15 PM,42.8,42.8,100,30.28,5.0,Calm,Calm,-,0.00,,Overcast,0,2013-02-09 22:15:00
2:35 PM,42.8,42.8,100,30.29,7.0,Calm,Calm,-,0.00,,Overcast,0,2013-02-09 22:35:00
2:55 PM,42.8,42.8,100,30.29,10.0,Calm,Calm,-,0.00,,Overcast,0,2013-02-09 22:55:00
3:15 PM,42.8,42.8,100,30.29,9.0,Calm,Calm,-,0.00,,Overcast,0,2013-02-09 23:15:00
3:35 PM,42.8,42.8,100,30.30,10.0,Calm,Calm,-,0.00,,Overcast,0,2013-02-09 23:35:00
3:55 PM,42.8,42.8,100,30.30,10.0,Calm,Calm,-,0.00,,Overcast,0,2013-02-09 23:55:00
4:15 PM,42.8,42.8,100,30.30,10.0,Calm,Calm,-,0.00,,Overcast,0,2013-02-10 00:15:00
4:35 PM,42.8,42.8,100,30.31,10.0,Calm,Calm,-,0.00,,Overcast,0,2013-02-10 00:35:00
5:15 PM,42.8,42.8,100,30.31,10.0,Calm,Calm,-,0.00,,Overcast,0,2013-02-10 01:15:00
5:35 PM,42.8,42.8,100,30.31,10.0,Calm,Calm,-,0.00,,Mostly Cloudy,0,2013-02-10 01:35:00
5:55 PM,42.8,42.8,100,30.32,10.0,Calm,Calm,-,0.00,,Overcast,0,2013-02-10 01:55:00
6:15 PM,42.8,42.8,100,30.32,10.0,Calm,Calm,-,0.00,,Overcast,0,2013-02-10 02:15:00
6:35 PM,42.8,42.8,100,30.31,10.0,Calm,Calm,-,0.00,,Overcast,0,2013-02-10 02:35:00
6:55 PM,41.0,41.0,100,30.31,10.0,Calm,Calm,-,0.00,,Overcast,0,2013-02-10 02:55:00
7:15 PM,41.0,41.0,100,30.31,9.0,Calm,Calm,-,0.00,,Overcast,0,2013-02-10 03:15:00
7:35 PM,39.2,39.2,100,30.31,5.0,Calm,Calm,-,0.00,,Overcast,0,2013-02-10 03:35:00
7:55 PM,39.2,39.2,100,30.32,5.0,Calm,Calm,-,0.00,,Overcast,0,2013-02-10 03:55:00
8:15 PM,39.2,39.2,100,30.32,4.0,Calm,Calm,-,0.00,,Overcast,0,2013-02-10 04:15:00
8:35 PM,39.2,39.2,100,30.32,5.0,Calm,Calm,-,0.00,,Overcast,0,2013-02-10 04:35:00
8:55 PM,37.4,37.4,100,30.33,2.5,NW,3.5,-,0.00,,Overcast,310,2013-02-10 04:55:00
9:15 PM,37.4,37.4,100,30.33,2.5,Calm,Calm,-,0.00,,Overcast,0,2013-02-10 05:15:00
9:35 PM,35.6,35.6,100,30.34,1.2,WNW,3.5,-,0.00,,Overcast,300,2013-02-10 05:35:00
9:55 PM,35.6,35.6,100,30.34,4.0,NW,3.5,-,0.00,,Mostly Cloudy,310,2013-02-10 05:55:00
10:15 PM,35.6,35.6,100,30.35,3.0,Calm,Calm,-,0.00,,Mostly Cloudy,0,2013-02-10 06:15:00
10:35 PM,35.6,35.6,100,30.35,1.2,Calm,Calm,-,0.00,,Scattered Clouds,0,2013-02-10 06:35:00
10:55 PM,35.6,35.6,100,30.35,2.0,Calm,Calm,-,0.00,,Scattered Clouds,0,2013-02-10 06:55:00
11:15 PM,35.6,35.6,100,30.35,0.2,Calm,Calm,-,0.00,,Mostly Cloudy,0,2013-02-10 07:15:00
11:35 PM,35.6,35.6,100,30.35,0.2,Calm,Calm,-,0.00,,Unknown,0,2013-02-10 07:35:00
11:55 PM,33.8,33.8,100,30.36,0.2,Calm,Calm,-,0.00,,Unknown,0,2013-02-10 07:55:00